星链-3071 (STARLINK-3071 )

导读 | 星芒AI

STARLINK-3071 是 SpaceX Starlink 项目中的一颗低轨通信卫星,属于第三代星链卫星(v1.5 或 v2 构型)。它于 2023 年末或 2024 年初通过猎鹰 9 号火箭发射升空,部署在约 540 公里的轨道高度,旨在为全球提供高速互联网服务。该卫星采用先进通信技术,具备更高的带宽和更低的延迟,支持偏远地区的网络接入。作为星链星座的一部分,STARLINK-3071 有助于提升全球互联网覆盖和连接质量。

基本信息
目录编号:
49147
目录名称:
STARLINK-3071
国际标识:
2021-082T
轨道中心:
EARTH
卫星名称:
星链-3071
卫星全名:
星链-3071 (STARLINK-3071 )
卫星状态:
在轨 (已飞行1558 天)
发射日期:
2021-09-14 UTC
国别 :
美国 (US)
星等 :
--
轨道信息
数据来源 国际轨道数据
星历时间: 2025-12-20T08:27:03+0800
8小时前
查看轨道信息
半长轴: 6950.191km
偏心率: 0.0003258
轨道倾角: 70.001°
近地点辐角 277.221°
升交点赤经 95.338°
平近点角 82.858°
近地点: 569.789km
远地点: 574.319km
周期: 96.107分钟
每日圈数: 14.983307
详细信息
固有亮度:
5
最大亮度:
2.5
卫星平台:
Starlink v1.5
覆盖范围:
全球
运营商:
太空探索技术公司
运营商所在国:
美国
制造商(研发单位):
太空探索技术公司
制造商所在国:
美国
使用方式:
暂无
卫星简介
星链(Starlink)计划是由太空探索技术公司(SpaceX)提出的一个巨型低轨卫星互联网星座项目,计划在2019年至2024年间在太空搭建由约1.2万颗卫星组成的“星链”网络,其中1584颗将部署在地球上空550千米处的近地轨道,并从2020年开始工作。该卫星仍在工作。
2D轨道图
3D轨道图
轨道高度分析图
轨道倾角分析图
轨道综合分析图
查看轨道综合分析图